TimeEST,TemperatureF,Dew PointF,Humidity,Sea Level PressureIn,VisibilityMPH,Wind Direction,Wind SpeedMPH,Gust SpeedMPH,PrecipitationIn,Events,Conditions,WindDirDegrees,DateUTC
12:56 AM,28.0,25.0,88,30.43,7.0,North,10.4,-,N/A,,Overcast,350,2013-12-07 05:56:00
1:56 AM,27.0,24.1,89,30.43,6.0,NNW,13.8,-,N/A,,Overcast,340,2013-12-07 06:56:00
2:56 AM,27.0,23.0,85,30.46,6.0,North,11.5,-,N/A,,Overcast,350,2013-12-07 07:56:00
3:56 AM,27.0,21.9,81,30.48,7.0,North,13.8,-,N/A,,Overcast,350,2013-12-07 08:56:00
4:56 AM,26.1,21.0,81,30.50,7.0,North,11.5,-,N/A,,Overcast,350,2013-12-07 09:56:00
5:56 AM,25.0,21.0,85,30.53,7.0,North,12.7,-,N/A,,Overcast,350,2013-12-07 10:56:00
6:56 AM,24.1,19.0,81,30.56,8.0,North,10.4,-,N/A,,Overcast,10,2013-12-07 11:56:00
7:18 AM,23.0,17.6,80,30.55,8.0,North,9.2,-,N/A,,Overcast,360,2013-12-07 12:18:00
7:56 AM,21.0,17.1,85,30.58,6.0,North,9.2,-,N/A,,Overcast,360,2013-12-07 12:56:00
8:56 AM,19.9,15.1,81,30.60,7.0,North,10.4,-,N/A,,Scattered Clouds,360,2013-12-07 13:56:00
9:56 AM,21.0,16.0,81,30.61,7.0,North,8.1,-,N/A,,Mostly Cloudy,10,2013-12-07 14:56:00
10:56 AM,21.9,17.1,82,30.63,6.0,NNW,8.1,-,N/A,,Haze,340,2013-12-07 15:56:00
11:56 AM,24.1,19.0,81,30.61,6.0,North,6.9,-,N/A,,Haze,350,2013-12-07 16:56:00
12:54 PM,24.8,19.4,80,30.57,6.0,North,8.1,-,N/A,,Haze,350,2013-12-07 17:54:00
12:56 PM,25.0,19.9,81,30.60,6.0,North,6.9,-,N/A,,Haze,350,2013-12-07 17:56:00
1:56 PM,26.1,21.0,81,30.58,8.0,NNE,8.1,-,N/A,,Mostly Cloudy,30,2013-12-07 18:56:00
2:44 PM,26.6,21.2,80,30.55,9.0,NNE,9.2,-,N/A,,Mostly Cloudy,30,2013-12-07 19:44:00
2:56 PM,27.0,21.0,78,30.57,9.0,North,10.4,-,N/A,,Mostly Cloudy,10,2013-12-07 19:56:00
3:56 PM,27.0,19.9,75,30.57,9.0,North,5.8,-,N/A,,Mostly Cloudy,10,2013-12-07 20:56:00
4:56 PM,26.1,21.0,81,30.58,7.0,North,9.2,-,N/A,,Overcast,350,2013-12-07 21:56:00
5:56 PM,25.0,19.9,81,30.58,8.0,North,10.4,-,N/A,,Overcast,10,2013-12-07 22:56:00
6:56 PM,24.1,19.0,81,30.57,8.0,North,9.2,-,N/A,,Overcast,360,2013-12-07 23:56:00
7:37 PM,23.0,17.6,80,30.56,8.0,North,8.1,-,N/A,,Overcast,10,2013-12-08 00:37:00
7:56 PM,23.0,18.0,81,30.58,8.0,North,6.9,-,N/A,,Overcast,360,2013-12-08 00:56:00
8:56 PM,21.9,19.0,89,30.57,7.0,North,6.9,-,N/A,,Overcast,360,2013-12-08 01:56:00
9:56 PM,21.9,18.0,85,30.55,6.0,NNE,5.8,-,N/A,,Overcast,20,2013-12-08 02:56:00
10:56 PM,23.0,19.0,85,30.52,7.0,NNE,6.9,-,N/A,,Overcast,30,2013-12-08 03:56:00
11:56 PM,24.1,19.0,81,30.51,9.0,ENE,8.1,-,N/A,,Overcast,60,2013-12-08 04:56:00